Regional Weather Roundup
Issued by NWS

Home | Current Version | Previous Version | Text Only | Print | Product List | Glossary On
Versions: 1 2 3 4 5 6 7 8 9 10 11 12 13 14 15 16 17 18 19 20 21 22 23 24 25 26 27 28 29 30 31 32 33 34 35 36 37 38 39 40 41 42 43 44 45 46 47 48 49 50
000
ASUS42 KKEY 220910
RWRKEY

FLORIDA REGIONAL WEATHER ROUNDUP FOR THE FLORIDA KEYS
NATIONAL WEATHER SERVICE KEY WEST FLORIDA
400 AM EST MON DEC 22 2014

...SOUTH FLORIDA AND THE KEYS...

CITY           SKY/WX    TMP DP  RH WIND       PRES   REMARKS
FORT MYERS     CLOUDY    69  66  90 SE8       29.98F
SW REGIONAL AP CLOUDY    68  65  90 SE6       29.99F
NAPLES         CLOUDY    68  65  90 SE5       29.99F
MIAMI          CLOUDY    70  65  84 SE3       30.02S
WEST KENDALL   FOG      N/A N/A N/A CALM      30.02F VSB 1/2
HOMESTEAD      PTCLDY    64  63  96 N1        30.02S
MARATHON       PTCLDY    75  69  81 SE5       30.00S
BOCA CHICA NAS CLOUDY    74  70  87 SE10      29.99F
KEY WEST INTL  MOCLDY    75  71  87 SE9       29.99F

...INTERNATIONAL WEATHER...

CITY           SKY/WX    TMP DP  RH WIND       PRES   REMARKS
NASSAU BAHAMAS NOT AVBL
CANCUN MEXICO  PTCLDY    73  72  94 SE3       29.92F
COZUMEL MEXICO NOT AVBL

ADJACENT COASTAL WATERS...

STATION/POSITION TIME  SKY/WX   TEMP    WIND        PRES    WAVE
                                AIR SEA DIR/SP/G            HT/PER
                 (UTC)          (F)     (DEG/KT/KT) (MB)    (FT/S)
PULASKI SHOAL LI 0800            75     140/  7/  8 1014.9F
SAND KEY         0841            77     150/ 12/ 14 1015.5F
SOMBRERO KEY     0900            76     160/ 10/ 11 1016.7R
LONG KEY         0757            74 72  140/  3/  3 1017.0F
MOLASSES REEF    0900            75 76  140/  9/ 10 1016.3F
FOWEY ROCKS      NOT AVBL
Buoy 42080       NOT AVBL

$$



USA.gov is the U.S. government's official web portal to all federal, state and local government web resources and services.